Weather History for KSZL - July, 2013

Change the Weather History Date:

Tuesday, July 9, 2013

  Actual Average Record
Temperature  
Mean Temperature 84 °F -  
Max Temperature 96 °F 86 °F 102 °F (2002)
Min Temperature 72 °F 67 °F 61 °F (2014)
Cooling Degree Days 19    
Growing Degree Days 34 (Base 50)    
Moisture  
Dew Point 73 °F    
Average Humidity 72    
Maximum Humidity 99    
Minimum Humidity 47    
Precipitation  
Precipitation 0.00 in - - ()
Sea Level Pressure  
Sea Level Pressure 29.95 in    
Wind  
Wind Speed 10 mph (SSW)    
Max Wind Speed 18 mph    
Max Gust Speed 24 mph    
Visibility 10 miles    
Events      
Averages and records for this station are not official NWS values.
T = Trace of Precipitation, MM = Missing Value Source: NWS Daily Summary

Daily Weather History Graph

Daily Weather History Graph

Search for Another Location

Airport or City:

Trip Planner

Search our weather history database for the weather conditions in past years. The results will help you decide how hot, cold, wet, or windy it might be!

Date:

Astronomy

Jul. 09, 2013 Rise Set
Actual Time 5:57 AM CDT 8:40 PM CDT
Civil Twilight 5:26 AM CDT 9:12 PM CDT
Nautical Twilight 4:47 AM CDT 9:51 PM CDT
Astronomical Twilight 4:02 AM CDT 10:35 PM CDT
Moon 7:21 AM CDT (7/9) 9:20 PM CDT (7/9)
Length of Visible Light 15h 46m
Length of Day
14h 43m
New Moon, 2% of the Moon is Illuminated
Jul 9
New Moon
Jul 15
First Quarter
Jul 22
Full
Jul 29
Last Quarter
Aug 6
New

Hourly Weather History & Observations

Time (CDT) Temp. Heat Index Dew Point Humidity Pressure Visibility Wind Dir Wind Speed Gust Speed Precip Events Conditions
12:58 AM 76.1 °F - 73.4 °F 91% 29.99 in 10.0 mi South 5.8 mph - N/A   Clear
1:58 AM 75.4 °F - 73.2 °F 93% 29.99 in 10.0 mi South 5.8 mph - N/A   Clear
2:58 AM 73.2 °F - 72.9 °F 99% 29.99 in 10.0 mi South 5.8 mph - N/A   Clear
3:58 AM 73.9 °F - 72.7 °F 96% 29.99 in 10.0 mi South 9.2 mph - N/A   Clear
4:58 AM 72.7 °F - 72.3 °F 99% 29.97 in 10.0 mi South 8.1 mph - N/A   Clear
5:58 AM 72.3 °F - 72.0 °F 99% 29.99 in 10.0 mi SSW 8.1 mph - N/A   Clear
6:58 AM 75.0 °F - 73.4 °F 95% 30.01 in 10.0 mi SSW 9.2 mph - N/A   Clear
7:58 AM 77.7 °F - 72.9 °F 85% 30.02 in 10.0 mi SW 8.1 mph - N/A   Partly Cloudy
8:58 AM 82.8 °F 88.7 °F 73.2 °F 73% 30.01 in 10.0 mi SSW 13.8 mph - N/A   Clear
9:58 AM 86.5 °F 94.2 °F 73.6 °F 65% 29.99 in 10.0 mi SW 12.7 mph - N/A   Clear
10:58 AM 86.5 °F 95.9 °F 75.2 °F 69% 29.99 in 10.0 mi SSW 16.1 mph 20.7 mph N/A   Partly Cloudy
11:58 AM 91.9 °F 101.9 °F 74.3 °F 56% 29.98 in 10.0 mi SSW 15.0 mph - N/A   Clear
12:58 PM 89.8 °F 98.1 °F 73.2 °F 58% 29.97 in 10.0 mi SW 12.7 mph - N/A   Partly Cloudy
1:58 PM 93.9 °F 105.4 °F 75.0 °F 54% 29.96 in 10.0 mi South 13.8 mph - N/A   Partly Cloudy
2:58 PM 95.4 °F 105.4 °F 73.6 °F 49% 29.94 in 10.0 mi SW 16.1 mph 21.9 mph N/A   Partly Cloudy
3:58 PM 96.4 °F 106.5 °F 73.2 °F 47% 29.93 in 10.0 mi South 18.4 mph - N/A   Clear
4:58 PM 95.9 °F 106.6 °F 73.9 °F 49% 29.91 in 10.0 mi South 17.3 mph 24.2 mph N/A   Clear
5:58 PM 94.8 °F 105.5 °F 74.3 °F 51% 29.89 in 10.0 mi South 17.3 mph - N/A   Clear
6:58 PM 92.3 °F 102.2 °F 73.9 °F 55% 29.88 in 10.0 mi South 15.0 mph - N/A   Clear
7:58 PM 89.2 °F 97.9 °F 73.9 °F 60% 29.87 in 10.0 mi South 10.4 mph - N/A   Clear
8:58 PM 85.8 °F 93.0 °F 73.4 °F 66% 29.88 in 10.0 mi South 10.4 mph - N/A   Clear
9:58 PM 84.6 °F 91.0 °F 73.0 °F 68% 29.89 in 10.0 mi South 12.7 mph - N/A   Clear
10:58 PM 83.3 °F 89.0 °F 72.7 °F 70% 29.90 in 10.0 mi SSW 11.5 mph - N/A   Clear
11:58 PM 83.3 °F 89.0 °F 72.5 °F 70% 29.90 in 10.0 mi SSW 12.7 mph - N/A   Clear